sat.trackr.live / text

‹ back to catalog

STARLINK-32206

NORAD 60273 · 2024-131U

PAYLOAD ACTIVE UNKNOWN

§ Identity

Operator
Country
US
Launch date
2024-07-27
Launch site
AFETR
Launch vehicle
Mass (kg)
RCS (m²)

Purposes: comms

External: N2YO · Heavens-Above · Gunter

§ Orbital elements

Epoch: 2026-09-21T07:27:02.403072Z

Period
93.85 min
Inclination
53.1596°
Eccentricity
0.0001458
Mean motion
15.34390018 rev/d
Perigee alt
461.7 km
Apogee alt
463.7 km
Semi-major
6,840.9 km
B*
2.6445e-5
RAAN
222.0586°
Arg perigee
78.2288°
Mean anomaly
281.8878°
Rev number
12,169

§ Raw data

STARLINK-322061 60273U 24131U   26264.31044448  .00000517  00000+0  26445-4 0  99942 60273  53.1596 222.0586 0001458  78.2288 281.8878 15.34390018121692

JSON: /api/v1/satellites/60273 · /tle

For live sub-satellite position, see the globe view (requires WebGL).

§ Visibility from observer

Set your observer location to see the next 7 days of passes ≥ 10°. The values pass through the URL so the page stays shareable.

No JS? Fill the form by hand. The geolocation button needs JavaScript.